This is the latest recevied weather packets stored in our database for station/object KF4ZNO-13. If no packets are shown the sender has not sent any weather packets the latest 10 day(s).
| Time | Temp. | Humidity | Pressure | Rain* | Wind** | Luminosity | Snow |
|---|---|---|---|---|---|---|---|
| 1777676419 | 16.67° C | 89% | 1013.6 hPa | 0.25 mm | - | - | - |
| 1777675219 | 17.22° C | 89% | 1013.3 hPa | 0 mm | - | - | - |
| 1777674641 | 17.22° C | 89% | 1013.1 hPa | 0 mm | - | - | - |
| 1777673419 | 17.22° C | 89% | 1013.4 hPa | 0 mm | - | - | - |
| 1777669819 | 17.22° C | 89% | 1013.1 hPa | 0 mm | - | - | - |
| 1777665019 | 17.22° C | 87% | 1013.7 hPa | 0 mm | - | - | - |
| 1777663239 | 18.33° C | 86% | 1014.9 hPa | 0 mm | - | - | - |
| 1777660218 | 18.33° C | 85% | 1015.3 hPa | 0 mm | - | - | - |
| 1777657819 | 18.33° C | 85% | 1015.3 hPa | 0 mm | - | - | - |
| 1777656018 | 18.33° C | 88% | 1014.9 hPa | 0 mm | - | - | - |
| 1777654820 | 18.33° C | 88% | 1015.5 hPa | 0 mm | - | - | - |
| 1777648259 | 17.78° C | 91% | 1015.4 hPa | 0.25 mm | - | - | - |
| 1777645220 | 17.78° C | 90% | 1014.6 hPa | 0 mm | - | - | - |
| 1777644020 | 17.22° C | 90% | 1014.7 hPa | 0 mm | - | - | - |
| 1777643420 | 17.22° C | 90% | 1014.7 hPa | 0 mm | - | - | - |
| 1777642820 | 17.22° C | 90% | 1014.8 hPa | 0.25 mm | - | - | - |
| 1777641020 | 17.22° C | 90% | 1014.7 hPa | 0.25 mm | - | - | - |
| 1777638618 | 17.78° C | 89% | 1015 hPa | 0 mm | - | - | - |
| 1777637420 | 17.78° C | 88% | 1014.4 hPa | 0 mm | - | - | - |
| 1777632640 | 18.33° C | 88% | 1013.7 hPa | 0 mm | - | - | - |
| 1777630820 | 18.89° C | 88% | 1013.7 hPa | 0 mm | - | - | - |
| 1777629620 | 18.89° C | 88% | 1013.4 hPa | 0 mm | - | - | - |
| 1777629020 | 18.89° C | 88% | 1013.5 hPa | 0 mm | - | - | - |
| 1777618819 | 19.44° C | 89% | 1013.8 hPa | 0 mm | - | - | - |
| 1777611019 | 20° C | 87% | 1013.6 hPa | 0 mm | - | - | - |
* Rain latest hour (hover to see other rain measurements)
** Current wind speed in m/s (hover to see current wind gust speed)